SCP
-0 -0 -0 -0 0 -0 0 0 0 0 0 0 0 0 0 0 0 0 0 -0 -0 0 0 0 0 0 0 0 0 0 0 0 0 0 0 -0 0 -0 0 0 0 0 0 -0
-0 -0 -0 -0 0 0 0 0 0 0 0 0 0 0 0 0 0 0 0 0 0 0 0 0 0 0 0 0 0 0 0 0 0 0 0 0 0 0 -0 0 0 0 0 0
-0 -0 -0 -0 -0 0 0 0 0 0 0 0 0 0 0 0 0 0 0 0 0 0 0 0 0 0 0 0 0 0 0 0 0 0 0 0 0 0 0 0 0 0 0 0
-0 -0 -0 -0 -0 -0 0 0 0 0 0 0 0 0 0 0 0 0 0 0 0 0 0 0 0 0 0 0 0 0 0 0 0 0 0 0 0 0 0 0 0 0 0 0
0 -0 -0 -0 -0 -0 0 0 0 0 0 0 0 0 0 0 0 0 0 0 0 0 0 0 0 0 0 0 0 0 0 0 0 0 0 0 -0 0 0 0 0 0 0 0
0 -0 -0 -0 -0 0 0 0 0 0 0 0 0 0 0 0 0 0 0 0 0 0 0 0 0 0 0 0 0 0 0 0 0 0 0 0 0 0 0 0 0 -0 -0 0
-0 0 0 0 0 0 0 0 0 0 0 0 0 0 0 0 0 0 0 0 0 0 0 0 0 0 0 0 0 0 0 0 0 0 0 0 0 0 0 0 0 0 0 0
-0 -0 -0 0 0 0 0 0 0 0 0 0 0 0 0 0 0 0 0 0 0 0 0 0 0 0 0 0 0 0 0 0 0 0 0 0 0 0 0 0 0 0 0 0
-0 -0 -0 -0 0 0 0 0 0 0 0 0 0 0 0 0 0 0 0 0 0 0 0 0 0 0 0 0 0 0 0 0 0 0 0 0 0 0 0 0 0 0 0 0
-0 -0 -0 -0 -0 -0 0 0 0 0 0 0 0 0 0 0 0 0 0 0 0 0 0 0 0 0 0 0 0 0 0 0 0 0 0 0 0 0 0 0 0 0 0 0
-0 -0 -0 -0 -0 0 0 0 0 0 0 0 0 0 0 0 0 0 0 0 0 0 0 0 0 0 0 0 0 0 0 0 0 0 0 0 0 0 0 0 0 0 0 0
-0 -0 -0 -0 0 0 0 0 0 0 0 0 0 0 0 0 0 0 0 0 0 0 0 0 0 0 0 0 0 0 0 0 0 0 0 0 0 0 0 0 0 0 0 0
0 0 0 0 0 0 0 0 0 0 0 0 0 0 0 0 0 0 0 0 0 0 0 0 0 0 0 0 0 0 0 0 0 0 0 0 0 0 0 0 0 0 0 0
0 0 0 0 0 0 0 0 0 0 0 0 0 0 0 0 0 0 0 0 0 0 0 0 0 0 0 0 0 0 0 0 0 0 0 0 0 0 0 0 0 0 0 0
0 0 0 0 0 0 0 0 0 0 0 0 0 0 0 0 0 0 0 0 0 0 0 0 0 0 0 0 0 0 0 0 0 0 0 0 0 0 0 0 0 -0 -0 -0
0 0 0 0 0 0 0 0 0 0 0 0 0 0 0 0 0 0 0 0 0 0 0 0 0 0 0 0 0 0 0 0 0 0 0 0 0 0 0 0 0 0 0 0
0 0 0 0 0 0 0 0 0 0 0 0 0 0 0 0 0 0 0 0 0 0 0 0 0 0 0 0 0 0 0 0 0 0 0 0 0 -0 0 0 0 0 0 0
0 0 0 0 0 0 0 0 0 0 0 0 0 0 0 0 0 0 0 0 0 0 0 0 0 0 0 0 0 0 0 0 0 0 0 0 0 0 0 0 0 0 0 0
0 0 0 0 0 0 0 0 0 0 0 0 0 0 0 0 0 0 0 0 0 0 0 0 0 0 0 0 0 0 0 0 0 0 0 0 0 0 0 0 0 0 0 0
0 0 0 0 0 0 0 0 0 0 0 0 0 0 0 0 0 0 0 0 0 0 0 0 0 0 0 0 0 0 0 0 0 0 0 0 0 0 0 0 0 0 0 0
0 0 0 0 0 0 0 0 0 0 0 0 0 0 0 0 0 0 0 0 0 0 0 0 0 0 0 0 0 0 0 0 0 0 0 0 0 0 0 0 0 0 0 0
0 0 0 0 0 0 0 0 0 0 0 0 0 0 0 0 0 0 0 0 0 0 0 0 0 0 0 0 0 0 0 0 0 0 0 0 0 0 0 0 0 0 0 0
-0 -0 -0 -0 -0 -0 0 0 0 0 0 0 0 0 0 0 0 0 0 0 0 0 0 0 0 0 0 0 0 0 0 0 0 0 0 0 0 0 0 0 0 0 0 0
-0 -0 -0 -0 -0 -0 0 0 0 0 0 0 0 0 0 0 0 0 0 0 0 0 0 0 0 0 0 0 0 0 0 0 0 0 0 0 0 0 0 0 0 0 0 0
-0 0 0 -0 0 0 0 -0 0 0 -0 0 0 0 0 0 0 0 0 0 0 0 0 0 0 0 0 0 0 0 0 0 0 0 0 0 0 0 0 0 0 0 0 0
-0 -0 0 0 0 0 0 -0 -0 -0 0 0 0 0 0 0 0 0 0 0 0 0 0 0 0 0 0 0 0 0 0 0 0 0 0 0 0 0 0 0 0 0 0 0
-0 0 0 0 0 0 0 0 0 0 0 0 -0 0 0 0 0 0 0 0 0 0 0 0 0 0 0 0 0 0 0 0 0 0 0 0 0 0 0 0 0 0 0 0
Wind_Speed_500mb
49 49 49 52 57 43 28 5 3 32 40 10 6 6 9 8 19 45 14 5 2 2 5 5 13 11 4 27 16 20 7 12 7 14 10 8 7 5 9 10 8 4 8 9
48 49 47 46 53 51 42 21 9 44 46 5 5 12 13 14 21 12 11 6 9 7 7 7 8 11 8 32 12 9 7 4 6 17 14 13 13 8 6 6 6 3 9 3
48 48 47 44 45 39 28 7 6 7 41 13 9 5 14 11 33 16 10 8 9 11 11 12 11 17 13 18 12 12 11 7 12 12 10 7 8 15 10 9 7 6 9 14
48 48 47 45 42 25 19 13 5 11 6 7 10 7 10 15 9 6 9 11 14 4 8 9 10 11 16 24 39 10 9 3 5 6 6 8 3 11 16 12 6 8 2 29
47 47 47 45 42 20 18 12 12 18 12 22 13 2 3 7 6 15 8 16 22 25 12 6 2 10 10 4 15 15 14 0 5 9 14 13 7 17 15 14 16 15 10 2
44 44 43 43 41 32 16 20 8 6 14 14 10 8 6 9 6 28 27 21 13 19 8 13 19 18 22 13 3 7 6 6 6 4 9 8 9 11 11 13 23 5 7 4
42 41 39 36 36 35 28 33 15 10 8 8 7 17 6 12 10 10 18 28 13 3 17 13 9 15 17 13 14 11 5 5 5 5 8 3 12 20 41 40 27 33 30 20
39 39 36 32 26 24 18 31 24 9 5 17 18 32 13 25 22 8 17 14 9 11 13 10 12 11 15 10 15 18 16 11 4 8 7 9 7 11 5 6 15 21 25 27
38 37 35 31 24 20 4 24 32 8 4 9 25 8 20 5 10 13 9 17 18 9 8 7 6 7 9 8 12 7 13 10 10 6 9 13 3 15 16 15 9 28 24 23
35 35 33 30 24 18 8 18 25 10 6 8 25 10 7 12 7 3 6 13 10 8 5 4 5 7 6 4 3 4 7 7 11 6 7 3 7 16 11 10 10 9 41 40
35 32 30 27 23 16 8 7 19 21 9 7 12 15 10 9 12 5 12 7 14 9 7 4 5 1 4 6 9 5 7 5 3 5 7 3 27 11 12 15 17 25 29 29
35 32 28 24 20 15 12 6 11 18 16 12 7 8 13 3 8 8 6 6 4 4 6 3 2 5 7 2 3 10 8 7 9 8 7 4 44 40 31 26 27 23 20 20
35 32 27 22 18 14 11 11 24 10 9 17 18 16 7 6 4 6 3 6 6 7 6 8 4 2 5 3 2 4 8 3 9 10 9 27 37 35 33 27 25 18 18 21
34 30 25 21 16 11 9 8 12 14 13 7 2 11 8 7 10 12 9 11 11 7 3 3 4 2 3 5 6 7 4 8 7 7 6 17 33 29 22 18 19 23 25 27
34 28 22 18 12 6 4 5 7 14 12 7 16 12 15 7 9 8 16 9 6 6 2 4 4 4 5 5 5 7 5 9 7 7 2 10 5 15 21 23 26 28 26 29
32 26 20 16 11 3 10 5 1 11 17 6 7 3 20 17 6 11 9 11 7 3 2 3 3 6 4 5 5 4 36 36 23 14 11 7 10 18 25 30 32 25 26 32
27 21 18 14 9 5 6 2 7 12 12 5 12 12 17 14 11 10 11 12 8 4 1 3 2 3 6 5 5 30 35 31 23 11 3 3 10 17 34 36 36 40 50 57
24 20 15 11 7 1 2 4 8 13 7 5 3 9 6 21 8 6 18 11 14 10 8 5 3 4 4 2 7 36 27 19 11 7 7 6 19 29 28 28 30 43 53 63
21 14 8 5 0 4 6 12 15 13 7 3 4 3 7 20 14 9 10 10 4 7 7 9 10 2 5 12 40 28 21 11 8 4 3 13 21 17 21 31 43 52 61 67
18 9 6 3 9 18 14 4 2 4 6 7 8 9 6 15 13 4 3 3 3 1 9 6 6 8 23 30 32 29 21 16 9 3 9 16 17 23 28 36 39 46 56 67
16 10 6 14 16 9 5 4 7 8 5 11 13 13 6 3 6 5 3 4 1 2 9 8 2 5 11 43 36 29 27 21 9 4 15 14 20 27 40 41 52 56 63 67
19 21 25 11 5 5 4 4 6 6 8 11 10 14 17 3 5 7 7 3 4 6 5 4 4 6 36 42 36 27 14 3 8 10 18 25 32 38 39 47 57 65 68 76
11 6 6 6 5 4 5 5 5 4 7 8 10 2 5 6 5 7 6 2 7 7 4 3 2 21 31 28 23 18 15 13 10 19 25 33 31 34 41 47 54 61 67 67
6 4 10 6 5 7 7 4 6 18 18 19 12 8 6 4 5 4 4 7 4 1 2 3 5 2 8 7 2 8 9 15 20 24 33 29 35 41 39 41 52 59 58 60
6 7 6 8 15 24 32 22 29 27 20 28 7 12 5 2 2 2 3 2 6 6 6 5 6 8 11 19 25 20 15 16 21 28 24 31 30 36 41 42 49 50 50 56
7 11 8 23 20 26 21 15 28 5 14 18 13 2 4 5 5 3 9 5 8 7 7 10 15 17 19 16 13 16 20 20 23 18 18 16 24 37 37 37 44 43 51 66
8 13 21 37 41 36 39 32 14 7 30 8 13 8 11 2 2 4 6 7 7 19 17 18 18 16 15 12 9 18 23 20 17 14 13 17 25 34 33 35 38 41 50 60
Wind_Direction_500mb
354 353 352 349 341 353 352 358 26 165 155 124 190 215 214 314 284 303 289 139 201 78 234 34 355 174 305 334 157 147 162 152 150 239 298 275 172 359 125 126 257 214 155 299
355 353 353 355 347 347 355 339 296 180 176 143 262 292 289 271 275 241 274 79 80 16 32 48 27 344 28 49 61 146 187 27 40 347 359 3 53 345 303 104 93 179 115 253
357 356 354 356 352 349 344 353 14 186 212 227 142 270 277 265 298 211 203 133 87 45 7 32 34 355 336 29 48 63 77 96 138 182 194 199 339 349 10 110 43 187 172 141
358 358 357 1 4 17 27 15 14 9 306 330 324 227 261 281 310 69 72 45 31 92 39 29 30 339 348 9 8 18 83 120 108 148 252 1 348 357 337 13 330 83 33 160
360 0 0 5 11 22 42 26 11 346 295 300 326 81 262 338 350 19 20 96 66 65 95 132 308 357 36 72 337 19 355 132 84 20 11 26 22 51 33 20 3 74 223 27
0 2 4 5 15 30 44 18 356 326 311 343 21 300 357 10 90 32 70 113 83 56 9 332 304 282 281 248 314 352 52 108 77 250 332 74 41 348 76 76 22 235 166 135
359 1 4 9 12 20 30 26 17 355 298 8 328 326 20 79 64 115 49 66 95 21 355 328 294 266 261 254 282 181 133 81 99 185 35 105 225 38 100 77 31 26 54 52
358 359 1 6 11 17 35 32 28 360 312 320 348 360 345 26 30 52 84 73 69 341 21 35 14 344 4 290 229 211 176 130 101 136 169 278 1 26 340 77 31 22 46 33
355 357 358 359 5 17 64 32 27 346 315 331 342 328 20 49 350 9 102 85 51 70 78 78 149 223 237 290 301 111 83 86 128 119 146 197 236 307 326 141 69 3 64 62
352 354 355 354 357 8 38 45 19 5 301 347 15 30 334 4 22 95 359 345 20 37 63 95 167 248 235 274 323 339 51 23 159 161 187 12 272 313 332 152 173 49 58 53
346 350 352 350 351 352 20 50 12 7 309 300 20 21 19 34 49 99 324 35 13 33 58 109 267 132 316 53 328 61 97 98 70 77 89 187 337 12 90 150 107 72 58 39
343 344 346 344 345 345 351 5 349 292 258 257 305 333 301 199 38 346 23 116 126 109 85 31 19 5 16 30 23 354 35 168 150 125 166 16 73 95 96 95 77 49 27 8
342 341 339 337 335 337 348 348 352 18 328 290 270 241 153 151 196 259 122 90 89 108 70 163 198 56 118 74 254 74 338 48 106 78 8 78 70 66 62 58 59 39 14 350
337 336 334 330 328 328 351 65 17 24 330 293 301 132 240 225 236 217 131 117 120 106 120 105 121 164 151 201 193 131 205 64 96 74 41 82 63 61 46 26 357 338 322 311
336 334 331 324 322 319 328 173 55 17 359 292 295 265 211 251 210 246 196 154 143 76 104 77 237 247 77 342 76 23 30 170 121 184 117 125 83 22 5 353 345 336 323 315
335 331 326 322 316 282 172 208 282 301 321 297 319 15 161 182 251 155 167 145 169 147 94 211 280 18 88 97 121 157 106 106 129 142 112 54 2 336 337 341 328 318 315 313
334 328 319 313 310 273 245 219 312 322 325 296 310 305 192 203 168 193 202 195 196 193 210 229 202 14 27 101 164 164 127 122 121 119 72 60 345 336 331 326 319 312 309 309
335 328 319 310 297 301 238 308 324 325 310 256 265 272 165 191 189 229 210 210 209 219 210 200 185 300 122 207 199 152 137 122 95 59 17 334 312 309 301 297 303 313 318 319
340 342 354 25 54 303 302 296 298 294 246 255 294 233 233 177 216 243 197 190 143 218 176 216 148 264 208 218 159 153 144 128 109 96 322 305 296 285 296 311 320 325 325 328
343 341 347 352 347 308 293 268 258 251 210 236 241 268 264 189 197 253 152 162 199 145 243 187 143 225 240 186 170 148 136 128 127 61 321 293 278 296 311 318 320 325 323 323
334 331 311 310 315 308 252 248 187 209 246 222 233 236 256 16 129 192 115 165 360 34 270 143 236 269 170 158 151 148 153 159 159 312 310 306 308 316 321 314 316 317 315 317
323 303 299 302 292 268 280 232 262 188 238 199 206 220 205 138 66 84 17 115 43 248 292 65 344 268 159 162 149 148 158 117 347 321 313 313 316 316 313 313 315 316 315 316
326 306 282 249 246 12 234 235 247 262 245 208 210 111 129 101 98 85 72 93 240 317 31 197 314 70 90 104 100 82 31 3 316 308 308 311 313 315 321 319 323 324 319 321
301 278 306 192 239 243 217 276 283 294 293 315 198 88 96 91 73 122 125 241 60 327 254 200 259 51 98 122 227 301 343 327 315 316 320 316 321 317 324 328 331 326 327 333
273 289 256 240 253 287 296 305 279 286 325 346 35 61 85 36 102 174 71 294 247 188 203 219 273 324 312 313 301 296 316 311 308 319 314 320 328 332 334 334 329 333 336 343
245 235 268 272 293 299 322 341 3 24 347 38 355 315 68 243 181 138 212 200 214 199 204 235 299 296 299 298 293 307 302 299 302 308 314 322 340 344 348 342 338 346 352 356
243 241 250 262 274 276 297 308 342 129 192 205 196 194 210 151 103 242 197 216 193 199 238 271 261 274 308 294 275 278 288 294 290 298 302 320 330 338 347 343 349 1 14 26
Wind_Speed_850mb
49 49 49 52 57 43 28 5 3 32 40 10 6 6 9 8 19 45 14 5 2 2 5 5 13 11 4 27 16 20 7 12 7 14 10 8 7 5 9 10 8 4 8 9
48 49 47 46 53 51 42 21 9 44 46 5 5 12 13 14 21 12 11 6 9 7 7 7 8 11 8 32 12 9 7 4 6 17 14 13 13 8 6 6 6 3 9 3
48 48 47 44 45 39 28 7 6 7 41 13 9 5 14 11 33 16 10 8 9 11 11 12 11 17 13 18 12 12 11 7 12 12 10 7 8 15 10 9 7 6 9 14
48 48 47 45 42 25 19 13 5 11 6 7 10 7 10 15 9 6 9 11 14 4 8 9 10 11 16 24 39 10 9 3 5 6 6 8 3 11 16 12 6 8 2 29
47 47 47 45 42 20 18 12 12 18 12 22 13 2 3 7 6 15 8 16 22 25 12 6 2 10 10 4 15 15 14 0 5 9 14 13 7 17 15 14 16 15 10 2
44 44 43 43 41 32 16 20 8 6 14 14 10 8 6 9 6 28 27 21 13 19 8 13 19 18 22 13 3 7 6 6 6 4 9 8 9 11 11 13 23 5 7 4
42 41 39 36 36 35 28 33 15 10 8 8 7 17 6 12 10 10 18 28 13 3 17 13 9 15 17 13 14 11 5 5 5 5 8 3 12 20 41 40 27 33 30 20
39 39 36 32 26 24 18 31 24 9 5 17 18 32 13 25 22 8 17 14 9 11 13 10 12 11 15 10 15 18 16 11 4 8 7 9 7 11 5 6 15 21 25 27
38 37 35 31 24 20 4 24 32 8 4 9 25 8 20 5 10 13 9 17 18 9 8 7 6 7 9 8 12 7 13 10 10 6 9 13 3 15 16 15 9 28 24 23
35 35 33 30 24 18 8 18 25 10 6 8 25 10 7 12 7 3 6 13 10 8 5 4 5 7 6 4 3 4 7 7 11 6 7 3 7 16 11 10 10 9 41 40
35 32 30 27 23 16 8 7 19 21 9 7 12 15 10 9 12 5 12 7 14 9 7 4 5 1 4 6 9 5 7 5 3 5 7 3 27 11 12 15 17 25 29 29
35 32 28 24 20 15 12 6 11 18 16 12 7 8 13 3 8 8 6 6 4 4 6 3 2 5 7 2 3 10 8 7 9 8 7 4 44 40 31 26 27 23 20 20
35 32 27 22 18 14 11 11 24 10 9 17 18 16 7 6 4 6 3 6 6 7 6 8 4 2 5 3 2 4 8 3 9 10 9 27 37 35 33 27 25 18 18 21
34 30 25 21 16 11 9 8 12 14 13 7 2 11 8 7 10 12 9 11 11 7 3 3 4 2 3 5 6 7 4 8 7 7 6 17 33 29 22 18 19 23 25 27
34 28 22 18 12 6 4 5 7 14 12 7 16 12 15 7 9 8 16 9 6 6 2 4 4 4 5 5 5 7 5 9 7 7 2 10 5 15 21 23 26 28 26 29
32 26 20 16 11 3 10 5 1 11 17 6 7 3 20 17 6 11 9 11 7 3 2 3 3 6 4 5 5 4 36 36 23 14 11 7 10 18 25 30 32 25 26 32
27 21 18 14 9 5 6 2 7 12 12 5 12 12 17 14 11 10 11 12 8 4 1 3 2 3 6 5 5 30 35 31 23 11 3 3 10 17 34 36 36 40 50 57
24 20 15 11 7 1 2 4 8 13 7 5 3 9 6 21 8 6 18 11 14 10 8 5 3 4 4 2 7 36 27 19 11 7 7 6 19 29 28 28 30 43 53 63
21 14 8 5 0 4 6 12 15 13 7 3 4 3 7 20 14 9 10 10 4 7 7 9 10 2 5 12 40 28 21 11 8 4 3 13 21 17 21 31 43 52 61 67
18 9 6 3 9 18 14 4 2 4 6 7 8 9 6 15 13 4 3 3 3 1 9 6 6 8 23 30 32 29 21 16 9 3 9 16 17 23 28 36 39 46 56 67
16 10 6 14 16 9 5 4 7 8 5 11 13 13 6 3 6 5 3 4 1 2 9 8 2 5 11 43 36 29 27 21 9 4 15 14 20 27 40 41 52 56 63 67
19 21 25 11 5 5 4 4 6 6 8 11 10 14 17 3 5 7 7 3 4 6 5 4 4 6 36 42 36 27 14 3 8 10 18 25 32 38 39 47 57 65 68 76
11 6 6 6 5 4 5 5 5 4 7 8 10 2 5 6 5 7 6 2 7 7 4 3 2 21 31 28 23 18 15 13 10 19 25 33 31 34 41 47 54 61 67 67
6 4 10 6 5 7 7 4 6 18 18 19 12 8 6 4 5 4 4 7 4 1 2 3 5 2 8 7 2 8 9 15 20 24 33 29 35 41 39 41 52 59 58 60
6 7 6 8 15 24 32 22 29 27 20 28 7 12 5 2 2 2 3 2 6 6 6 5 6 8 11 19 25 20 15 16 21 28 24 31 30 36 41 42 49 50 50 56
7 11 8 23 20 26 21 15 28 5 14 18 13 2 4 5 5 3 9 5 8 7 7 10 15 17 19 16 13 16 20 20 23 18 18 16 24 37 37 37 44 43 51 66
8 13 21 37 41 36 39 32 14 7 30 8 13 8 11 2 2 4 6 7 7 19 17 18 18 16 15 12 9 18 23 20 17 14 13 17 25 34 33 35 38 41 50 60
Wind_Direction_850mb
354 353 352 349 341 353 352 358 26 165 155 124 190 215 214 314 284 303 289 139 201 78 234 34 355 174 305 334 157 147 162 152 150 239 298 275 172 359 125 126 257 214 155 299
355 353 353 355 347 347 355 339 296 180 176 143 262 292 289 271 275 241 274 79 80 16 32 48 27 344 28 49 61 146 187 27 40 347 359 3 53 345 303 104 93 179 115 253
357 356 354 356 352 349 344 353 14 186 212 227 142 270 277 265 298 211 203 133 87 45 7 32 34 355 336 29 48 63 77 96 138 182 194 199 339 349 10 110 43 187 172 141
358 358 357 1 4 17 27 15 14 9 306 330 324 227 261 281 310 69 72 45 31 92 39 29 30 339 348 9 8 18 83 120 108 148 252 1 348 357 337 13 330 83 33 160
360 0 0 5 11 22 42 26 11 346 295 300 326 81 262 338 350 19 20 96 66 65 95 132 308 357 36 72 337 19 355 132 84 20 11 26 22 51 33 20 3 74 223 27
0 2 4 5 15 30 44 18 356 326 311 343 21 300 357 10 90 32 70 113 83 56 9 332 304 282 281 248 314 352 52 108 77 250 332 74 41 348 76 76 22 235 166 135
359 1 4 9 12 20 30 26 17 355 298 8 328 326 20 79 64 115 49 66 95 21 355 328 294 266 261 254 282 181 133 81 99 185 35 105 225 38 100 77 31 26 54 52
358 359 1 6 11 17 35 32 28 360 312 320 348 360 345 26 30 52 84 73 69 341 21 35 14 344 4 290 229 211 176 130 101 136 169 278 1 26 340 77 31 22 46 33
355 357 358 359 5 17 64 32 27 346 315 331 342 328 20 49 350 9 102 85 51 70 78 78 149 223 237 290 301 111 83 86 128 119 146 197 236 307 326 141 69 3 64 62
352 354 355 354 357 8 38 45 19 5 301 347 15 30 334 4 22 95 359 345 20 37 63 95 167 248 235 274 323 339 51 23 159 161 187 12 272 313 332 152 173 49 58 53
346 350 352 350 351 352 20 50 12 7 309 300 20 21 19 34 49 99 324 35 13 33 58 109 267 132 316 53 328 61 97 98 70 77 89 187 337 12 90 150 107 72 58 39
343 344 346 344 345 345 351 5 349 292 258 257 305 333 301 199 38 346 23 116 126 109 85 31 19 5 16 30 23 354 35 168 150 125 166 16 73 95 96 95 77 49 27 8
342 341 339 337 335 337 348 348 352 18 328 290 270 241 153 151 196 259 122 90 89 108 70 163 198 56 118 74 254 74 338 48 106 78 8 78 70 66 62 58 59 39 14 350
337 336 334 330 328 328 351 65 17 24 330 293 301 132 240 225 236 217 131 117 120 106 120 105 121 164 151 201 193 131 205 64 96 74 41 82 63 61 46 26 357 338 322 311
336 334 331 324 322 319 328 173 55 17 359 292 295 265 211 251 210 246 196 154 143 76 104 77 237 247 77 342 76 23 30 170 121 184 117 125 83 22 5 353 345 336 323 315
335 331 326 322 316 282 172 208 282 301 321 297 319 15 161 182 251 155 167 145 169 147 94 211 280 18 88 97 121 157 106 106 129 142 112 54 2 336 337 341 328 318 315 313
334 328 319 313 310 273 245 219 312 322 325 296 310 305 192 203 168 193 202 195 196 193 210 229 202 14 27 101 164 164 127 122 121 119 72 60 345 336 331 326 319 312 309 309
335 328 319 310 297 301 238 308 324 325 310 256 265 272 165 191 189 229 210 210 209 219 210 200 185 300 122 207 199 152 137 122 95 59 17 334 312 309 301 297 303 313 318 319
340 342 354 25 54 303 302 296 298 294 246 255 294 233 233 177 216 243 197 190 143 218 176 216 148 264 208 218 159 153 144 128 109 96 322 305 296 285 296 311 320 325 325 328
343 341 347 352 347 308 293 268 258 251 210 236 241 268 264 189 197 253 152 162 199 145 243 187 143 225 240 186 170 148 136 128 127 61 321 293 278 296 311 318 320 325 323 323
334 331 311 310 315 308 252 248 187 209 246 222 233 236 256 16 129 192 115 165 360 34 270 143 236 269 170 158 151 148 153 159 159 312 310 306 308 316 321 314 316 317 315 317
323 303 299 302 292 268 280 232 262 188 238 199 206 220 205 138 66 84 17 115 43 248 292 65 344 268 159 162 149 148 158 117 347 321 313 313 316 316 313 313 315 316 315 316
326 306 282 249 246 12 234 235 247 262 245 208 210 111 129 101 98 85 72 93 240 317 31 197 314 70 90 104 100 82 31 3 316 308 308 311 313 315 321 319 323 324 319 321
301 278 306 192 239 243 217 276 283 294 293 315 198 88 96 91 73 122 125 241 60 327 254 200 259 51 98 122 227 301 343 327 315 316 320 316 321 317 324 328 331 326 327 333
273 289 256 240 253 287 296 305 279 286 325 346 35 61 85 36 102 174 71 294 247 188 203 219 273 324 312 313 301 296 316 311 308 319 314 320 328 332 334 334 329 333 336 343
245 235 268 272 293 299 322 341 3 24 347 38 355 315 68 243 181 138 212 200 214 199 204 235 299 296 299 298 293 307 302 299 302 308 314 322 340 344 348 342 338 346 352 356
243 241 250 262 274 276 297 308 342 129 192 205 196 194 210 151 103 242 197 216 193 199 238 271 261 274 308 294 275 278 288 294 290 298 302 320 330 338 347 343 349 1 14 26